Погода в Кирове

Хотите узнать прогноз погоды в Кирове? Тогда Вам сюда: Погода в Кирове

Поиск расширенной информации на нашем сайте:

Полезная информация:

Новости сайта



02.01.2020
Опубликован Долгосрочный прогноз погоды по городам России и ближнего зарубежья на январь 2020 года.
Карты: Прогноз на январь и февраль 2020 года, Сравнение прогнозируемой аномалии приземной температуры воздуха на январь 2020 года по разным моделям.




Погода в Кирове - сегодня

Время (UTC), дата Ветер
(°,м/с) 
Видим.   Явления Облачность Т
(°С)
Тd
(°С)
f(%) Тe
(°С)
Pmin
(гПа)
dP
(гПа)
Po
(мм)
O2
(г/м3)
Тmin Tmax R s Состояние
почвы
21 15.01.22 320 (СЗ) 1-3{04}  10 км  слаб. снег  10/0 средняя 
[As trans]
-10.1 -11.8 87 -10  985.9  1.6  724  304           
00 16.01.22 310 (СЗ) 1-2{04}  10 км  слаб. снег  10/6 600 м средняя 
[Sc|As trans]
-9.8 -11.5 87 -10  987.6  1.7  726  304           
03 16.01.22 310 (СЗ) 1-4{04}  10 км  слаб. снег  10/10 600 м 
[Sc]
-9.2 -10.9 87 -9  989  1.3  727  304  -10.9    0.2  49  равномерный
сухой снег
100% 
06 16.01.22 320 (СЗ) 2-4{04}  10 км  слаб. снег  10/8 600 м средняя 
[Sc|As op]
-8.3 -10.4 85 -10  991.3  2.4  728  304           
09 16.01.22 320 (СЗ) 2-6{07}  20000 м  слаб. снег  10/10 600 м 
[Sc]
-7.8 -10.7 80 -9  992.9  1.6  730  304           
12 16.01.22 310 (СЗ) 1-2{05}  4000 м  слаб. снег  10/0 средняя 
[As op]
-7.1 -8.9 87 -7  994.3  1.4  731  303           
15 16.01.22 310 (СЗ) 1-4{06}  10 км  слаб. снег  10/0 средняя 
[As op]
-7.2 -10.2 79 -7  996.6  2.3  732  304    -6.7  0.2     
18 16.01.22 290 (З) 1-3{05}  10 км  слаб. снег  10/8 600 м средняя 
[Sc|As trans]
-8.1 -10.1 85 -8  997.1  0.4  733  305           
21 16.01.22 240 (ЮЗ) 1-3{04}  10 км  слаб. снег  10/6 600 м средняя 
[Sc|As trans]
-8.3 -9.8 89 -8  996.7  -0.4  732  305           
00 17.01.22 220 (ЮЗ) 3-5{05}  10 км  слаб. снег  10/5 600 м средняя 
[Sc|As trans]
-8.9 -10.9 85 -12  995.7  -1.1  732  306           
03 17.01.22 200 (Ю) 3-6{06}  10 км  слаб. снег  10/0 средняя 
[As op]
-8.5 -10.5 85 -11  993.4  -2.2  730  305  -9.1    0.2  48  равномерный
сухой снег
100% 
06 17.01.22 200 (Ю) 3-6{07}  20000 м  {снег}  10/8 600 м средняя 
[Sc|As op]
-7.4 -9.3 86 -10  992.5  -0.8  729  303           
09 17.01.22 210 (ЮЗ) 3-6{08}  20000 м    10/10 600 м 
[Sc]
-5.8 -8.5 81 -8  991.1  -1.3  728  301           
12 17.01.22 200 (Ю) 2-5{08}  2000 м  снег  10/8 300 м средняя 
[Frnb|As op]
-5.7 -7.5 87 -7  990.8  -0.2  728  300           
15 17.01.22 200 (Ю) 2-5{07}  20000 м  {снег}  10/0 средняя 
[Ac As]
-5.6 -8.2 82 -7  991.3  0.5  729  301    -5.5  0.6     
18 17.01.22 200 (Ю) 3-9{09}  20000 м  {снег}  10/6 300 м средняя 
[Frnb|As trans]
-5 -7.6 82 -7  991.8  0.5  729  300           
21 17.01.22 190 (Ю) 3-7{08}  4000 м  слаб. снег  10/6 300 м средняя 
[Frnb|As op]
-5.4 -7.2 87 -8  992.7  0.8  730  301           
00 18.01.22 190 (Ю) 2-5{07}  4000 м  слаб. снег  10/0 средняя 
[As op]
-5.3 -7.1 87 -7  993.8  1.1  730  301           
03 18.01.22 180 (Ю) 2-5{07}  10 км  слаб. снег  10/0 средняя 
[As op]
-5.3 -6.7 90 -7  994.8  1.1  731  301  -5.6    49  равномерный
сухой снег
100% 
06 18.01.22 170 (Ю) 2-4{05}  2000 м  снег  10/9 200 м средняя 
[Frnb|As op]
-5.1 -6.2 92 -6  996.7  1.8  733  301           
09 18.01.22 190 (Ю) 2-3{06}  10 км  слаб. снег  10/8 600 м средняя 
[Sc|As op]
-3.8 -5.4 89 -5  998.3  1.7  734  300           
12 18.01.22 200 (Ю) 1-2{04}  10 км  слаб. снег  10/8 600 м средняя 
[Sc|As op]
-3.1 -4.5 90 -3  1000  1.7  735  300           
15 18.01.22 200 (Ю) 1-3{03}  10 км  слаб. снег  10/8 300 м средняя 
[Sc|As op]
-2.9 -4.1 91 -2  1001.7  1.7  736  300    -2.9     
18 18.01.22 270 (З) 2-3{03}  10 км  слаб. снег  10/8 300 м средняя 
[Sc|As op]
-2.8 -4 91 -4  1002.9  1.2  737  301           
21 18.01.22 290 (З) 1-1{04}  10 км  слаб. снег  10/8 600 м средняя 
[Sc|As op]
-3.8 -5.3 89 -3  1005.1  739  302           
Время (UTC), дата Ветер
(°,м/с) 
Видим.   Явления Облачность Т
(°С)
Тd
(°С)
f(%) Тe
(°С)
Pmin
(гПа)
dP
(гПа)
Po
(мм)
O2
(г/м3)
Тmin Tmax R s Состояние
почвы

Для получения пояснительной информации подведите курсор к названию столбца.

ПОГОДА в Кирове - архив

Всё, что Вы хотите узнать о погоде в Кирове - удобно и подробно!

Выберите нужную дату (начиная с 1 января 2019* года) и нажмите кнопку "Найти".
Будут отображены архивные сводки погоды по пункту Киров, начиная с указанной даты.


Отображать данные в формате CSV (для использования в таблицах Excel)


Внимание! Наш архив погоды предназначен исключительно для личного некоммерческого использования в познавательных целях. Если Вам необходимы официальные справки о состоянии погоды (для производственных, юридических, коммерческих и т.п. целей), обращайтесь в органы Росгидромета.

*Примечание: данная дата относится к архиву по метеостанциям СССР (Россия, СНГ, Балтия).
Архив по метеостанциям Зарубежной Европы и Азии (кроме Китая) хранится 10 дней, по другим регионам земного шара (Китай, Африка, Америка, Австралия, Океания) - 1 день.

Киров - район местоположения метеостанции


Название, широта, долгота, высота метеостанции:
Киров 58.6°ш. 49.6°д. 158 м над ур. моря [Российская Федерация]

Дополнительная информация

В oтличие oт бoльшинства пoгoдных сайтoв мы публикуем пoдрoбную метеoинфoрмацию в детальнoм прoфессиoнальнoм фoрмате.

Характеристики температуры и влажнoсти вoздуха измеряются на высoте 2 м в тени вдали oт зданий и деревьев.
Скoрoсть ветра измеряется на высoте 10 м (на урoвне рoста челoвека скoрoсть ветра ниже в 1.5-2 раза). Если метеoстанция нахoдится в гoрoде или в лесу, тo скoрoсть ветра занижена на 2-4 м/с пo сравнению с oткрытым местoм. Скoрoсть ветра над акватoриями крупных рек и oзёр, а также на вершинах хoлмoв на 2-5 м/с выше, чем в oбычных услoвиях.
Атмoсфернoе давление в разных тoчках местнoсти мoжет значительнo oтличаться oт давления на метеoстанции, в зависимoсти oт услoвий рельефа (при пoдъёме на 10 м давление пoнижается примернo на 1 мм рт.ст.).